[[{"header":{"parameterUnit":"m.s-1","parameterCategory":1,"la1":30.2991,"la2":30.254,"lo1":-89.0895,"lo2":-89.0444,"dx":0.0017,"dy":0.0017,"nx":28,"ny":28,"refTime":"2022-11-16T09:00:00:Z","depth":0,"parameterNumber":2,"parameterNumberName":"U-component_of_WINDS"},"data":[0,0,0,0,0,0,0,0,0,0,0,0,0,0,0,0,0,0,0,0,0,0,0,0,0,0,0,0,0,0,0,0,0,0,0,0,0,0,0,0,0,0,0,0,0,0,0,0,0,0,0,0,0,0,0,0,0,0,-3.1268,-3.1269,0,-3.138,-3.1381,-3.1383,-3.1257,-3.1253,-3.1248,-3.1243,-3.136,-3.1368,-3.1375,0,0,0,0,0,0,0,0,0,0,0,0,0,-3.0945,-3.0952,-3.1268,-3.1269,-3.127,-3.138,-3.1381,-3.1383,-3.1258,-3.1253,-3.1247,-3.1241,-3.1358,-3.1367,-3.1376,0,0,0,0,0,0,0,0,0,0,0,0,0,-3.1074,-3.0954,-3.1267,-3.1221,-3.1218,-3.138,-3.1381,-3.1383,-3.126,-3.1252,-3.1245,-3.1239,-3.1355,-3.1366,-3.1377,-3.1589,0,0,-3.1412,-3.1416,0,0,0,0,0,0,0,0,-3.1067,-3.1086,-3.1227,-3.1225,-3.1222,-3.1297,-3.131,-3.1453,-3.1261,-3.1244,-3.1243,-3.1235,-3.1345,-3.1357,-3.1394,-3.1595,-3.16,-3.1413,-3.1419,-3.1424,-3.1427,0,0,0,0,0,0,0,-3.1058,-3.1081,-3.1312,-3.1229,-3.1226,-3.1195,-3.1206,-3.1337,-3.1333,-3.1245,-3.1236,-3.1251,-3.1342,-3.1383,-3.1395,-3.1602,-3.1412,-3.1422,-3.1429,-3.1434,-3.1981,-3.1988,0,0,0,0,0,0,-3.1054,-3.1074,-3.1308,-3.1315,-3.1125,-3.1207,-3.1218,-3.128,-3.1331,-3.1332,-3.1257,-3.1245,-3.1367,-3.1382,-3.1399,-3.1651,-3.1424,-3.1435,-3.1441,-3.1973,-3.1983,-3.1991,0,0,0,0,0,0,-3.1048,-3.1077,-3.1304,-3.1192,-3.1219,-3.122,-3.129,-3.1286,-3.1327,-3.1341,-3.1339,-3.1299,-3.1362,-3.1383,-3.1543,-3.1653,-3.144,-3.145,-3.1964,-3.1976,-3.1987,-3.2156,0,0,0,0,0,0,-3.1039,-3.1075,-3.1156,-3.1195,-3.1225,-3.1446,-3.1297,-3.1294,-3.1346,-3.1332,-3.138,-3.1381,-3.1358,-3.1526,-3.1554,-3.1665,-3.1459,-3.1954,-3.1969,-3.1983,-3.2141,-3.2172,-3.2199,0,0,0,0,0,-3.1028,-3.12,-3.1161,-3.119,-3.1327,-3.1453,-3.147,-3.144,-3.1356,-3.1437,-3.1445,-3.1379,-3.1636,-3.1544,-3.1574,-3.169,-3.1947,-3.1965,-3.1982,-3.2128,-3.2166,-3.2198,0,0,0,0,0,0,-3.1175,-3.1204,-3.1161,-3.1351,-3.14,-3.1432,-3.1534,-3.1482,-3.1557,-3.154,-3.1499,-3.1511,-3.1681,-3.17,-3.1597,-3.1897,-3.1778,-3.1802,-3.1878,-3.1915,-3.1943,-3.1936,-3.1468,0,0,0,0,0,-3.1229,-3.1329,-3.1349,-3.1514,-3.1541,-3.1534,-3.1587,-3.1559,-3.1609,-3.163,-3.165,-3.1701,-3.1793,-3.1854,-3.194,-3.2142,-3.215,-3.2236,-3.2265,-3.2289,-3.2311,-3.2419,-3.2457,-3.2048,-3.2048,-3.2048,0,0,-3.1343,-3.1371,-3.1437,-3.1545,-3.158,-3.1684,-3.1552,-3.1668,-3.1745,-3.1648,-3.1799,-3.1816,-3.187,-3.2052,-3.2132,-3.2073,-3.2425,-3.2311,-3.233,-3.234,-3.2441,-3.2479,-3.2514,-3.206,-3.2058,-3.2056,0,0,-3.1603,-3.1635,-3.1775,-3.1813,-3.1867,-3.186,-3.1894,-3.1933,-3.194,-3.2091,-3.2019,-3.211,-3.2269,-3.231,-3.2352,-3.2626,-3.2568,-3.2654,-3.2807,-3.2913,-3.2945,-3.2973,-3.3071,-3.3106,-3.2676,-3.2676,-3.2677,0,-3.1738,-3.1892,-3.1854,-3.1976,-3.2025,-3.1939,-3.2081,-3.2119,-3.22,-3.2235,-3.2167,-3.2364,-3.2395,-3.2584,-3.2651,-3.2688,-3.2725,-3.265,-3.2943,-3.2971,-3.2997,-3.309,-3.3127,-3.2687,-3.2685,-3.2684,-3.2683,0,-3.2055,-3.2163,-3.227,-3.2348,-3.2409,-3.254,-3.2522,-3.2588,-3.2554,-3.2555,-3.2709,-3.2742,-3.2832,-3.2874,-3.2843,-3.306,-3.3021,-3.2949,-3.2829,-3.3047,-3.3133,-3.3169,-3.2701,-3.2698,-3.2695,-3.2692,0,0,-3.2414,-3.2467,-3.2507,-3.2541,-3.2594,-3.2676,-3.2803,-3.289,-3.2947,-3.3004,-3.311,-3.3245,-3.3178,-3.3226,-3.3198,-3.329,-3.3504,-3.3206,-3.3206,-3.3261,-3.3744,-3.3799,-3.3841,-3.3465,-3.3471,-3.3476,-3.374,0,-3.2675,-3.2894,-3.2863,-3.3074,-3.3173,-3.3092,-3.3202,-3.3246,-3.3249,-3.3333,-3.3336,-3.3433,-3.3337,-3.3365,-3.3452,-3.346,-3.3601,-3.344,-3.3562,-3.3567,-3.3553,-3.3886,-3.3944,-3.4191,-3.3773,-3.3779,-3.3783,0,-3.301,-3.3079,-3.33,-3.3335,-3.3375,-3.3475,-3.3551,-3.3633,-3.368,-3.3675,-3.3728,-3.3683,-3.3808,-3.3684,-3.3857,-3.3748,-3.3796,-3.3807,-3.3816,-3.3827,-3.369,-3.3907,-3.4269,-3.4307,-3.3836,-3.3831,-3.3828,0,-3.3251,-3.3398,-3.3548,-3.358,-3.3625,-3.3697,-3.3719,-3.3759,-3.3813,-3.3879,-3.3914,-3.3994,-3.4039,-3.4102,-3.408,-3.3991,-3.4257,-3.4131,-3.4257,-3.4258,-3.4318,-3.4315,-3.4694,-3.4348,-3.4347,-3.4346,-3.4346,0,-3.3547,-3.3685,-3.3657,-3.375,-3.3902,-3.3864,-3.4015,-3.4027,-3.4064,-3.4157,-3.4092,-3.4181,-3.4145,-3.4232,-3.4215,-3.436,-3.4381,-3.438,-3.4374,-3.4387,-3.4387,-3.4419,-3.4402,-3.4356,-3.4354,-3.4352,-3.435,0,-3.3842,-3.3828,-3.3987,-3.4016,-3.4026,-3.4137,-3.4162,-3.4249,-3.4245,-3.4364,-3.439,-3.4385,-3.4484,-3.4467,-3.4576,-3.4564,-3.4746,-3.4719,-3.4731,-3.4724,-3.4851,-3.484,-3.5265,-3.5319,-3.4937,-3.4941,-3.4944,0,-3.4033,-3.4137,-3.4176,-3.4234,-3.4261,-3.4355,-3.4409,-3.4375,-3.4434,-3.4494,-3.4574,-3.4666,-3.4738,-3.4899,-3.4906,-3.4988,-3.4963,-3.5106,-3.4975,-3.4984,-3.4965,-3.496,-3.497,-3.5133,-3.5137,-3.5141,-3.5143,0,-3.4372,-3.436,-3.444,-3.4519,-3.4585,-3.4645,-3.4698,-3.4749,-3.4719,-3.4789,-3.4888,-3.4944,-3.5054,-3.5147,-3.5224,-3.5245,-3.5191,-3.5184,-3.5218,-3.5232,-3.5235,-3.5235,-3.4802,-3.5175,-3.5172,-3.517,-3.5168,-3.5167,-3.4621,-3.471,-3.4751,-3.4842,-3.4879,-3.493,-3.5012,-3.5019,-3.5101,-3.5188,-3.5162,-3.5275,-3.5318,-3.5415,-3.5446,-3.5533,-3.548,-3.5529,-3.5541,-3.5554,-3.5569,-3.522,-3.5547,-3.5546,-3.5545,-3.5544,-3.5543,0,-3.4958,-3.498,-3.5064,-3.514,-3.5212,-3.5152,-3.5207,-3.5272,-3.5372,-3.5416,-3.5488,-3.5601,-3.569,-3.5702,-3.5786,-3.5854,-3.583,-3.5877,-3.5872,-3.5878,-3.5612,-3.5575,-3.5894,-3.5894,-3.5894,-3.5894,-3.5894,-3.5894,-3.5142,-3.5288,-3.528,-3.5444,-3.5464,-3.5574,-3.5611,-3.5657,-3.5692,-3.5822,-3.5895,-3.5902,-3.5933,-3.6018,-3.6096,-3.6097,-3.6131,-3.6188,-3.618,-3.5932,-3.5897,-3.5863,-3.5828,-3.6196,-3.6196,-3.6438,-3.6441,-3.6442]},{"header":{"parameterUnit":"m.s-1","parameterCategory":1,"la1":30.2991,"la2":30.254,"lo1":-89.0895,"lo2":-89.0444,"dx":0.0017,"dy":0.0017,"nx":28,"ny":28,"refTime":"2022-11-16T09:00:00:Z","depth":0,"parameterNumber":3,"parameterNumberName":"V-component_of_WINDS"},"data":[0,0,0,0,0,0,0,0,0,0,0,0,0,0,0,0,0,0,0,0,0,0,0,0,0,0,0,0,0,0,0,0,0,0,0,0,0,0,0,0,0,0,0,0,0,0,0,0,0,0,0,0,0,0,0,0,0,0,-5.5538,-5.5539,0,-5.5654,-5.5655,-5.5657,-5.5566,-5.5562,-5.5558,-5.5555,-5.567,-5.5676,-5.5683,0,0,0,0,0,0,0,0,0,0,0,0,0,-5.5233,-5.5239,-5.5538,-5.554,-5.5541,-5.5654,-5.5656,-5.5657,-5.5567,-5.5562,-5.5557,-5.5553,-5.5667,-5.5675,-5.5683,0,0,0,0,0,0,0,0,0,0,0,0,0,-5.5359,-5.5241,-5.5538,-5.551,-5.5508,-5.5654,-5.5656,-5.5658,-5.5568,-5.5562,-5.5556,-5.5551,-5.5665,-5.5675,-5.5684,-5.5863,0,0,-5.5715,-5.5719,0,0,0,0,0,0,0,0,-5.5352,-5.537,-5.5512,-5.5512,-5.5511,-5.559,-5.559,-5.5726,-5.5569,-5.5545,-5.5554,-5.5548,-5.5648,-5.5659,-5.5693,-5.5868,-5.5873,-5.5716,-5.5722,-5.5726,-5.5729,0,0,0,0,0,0,0,-5.5343,-5.5364,-5.5584,-5.5514,-5.5513,-5.5489,-5.5501,-5.5615,-5.5627,-5.5547,-5.554,-5.5556,-5.5646,-5.5684,-5.5695,-5.5875,-5.5716,-5.5725,-5.5731,-5.5735,-5.6199,-5.6205,0,0,0,0,0,0,-5.5338,-5.5358,-5.558,-5.5587,-5.5415,-5.55,-5.5512,-5.557,-5.5626,-5.5629,-5.556,-5.5551,-5.5669,-5.5683,-5.5699,-5.5909,-5.5726,-5.5736,-5.5741,-5.6193,-5.62,-5.6207,0,0,0,0,0,0,-5.5332,-5.5359,-5.5575,-5.5471,-5.5497,-5.5511,-5.5577,-5.5575,-5.5613,-5.5636,-5.5637,-5.5597,-5.5665,-5.5685,-5.5822,-5.5912,-5.574,-5.5749,-5.6185,-5.6195,-5.6204,-5.6333,0,0,0,0,0,0,-5.5323,-5.5357,-5.5426,-5.5473,-5.5503,-5.5699,-5.5582,-5.5582,-5.5631,-5.562,-5.5671,-5.5674,-5.5662,-5.5808,-5.5832,-5.5923,-5.5757,-5.6177,-5.619,-5.6201,-5.6321,-5.6346,-5.6368,0,0,0,0,0,-5.5313,-5.5458,-5.543,-5.5458,-5.559,-5.5705,-5.5721,-5.5706,-5.5639,-5.5707,-5.5722,-5.5672,-5.5899,-5.5823,-5.5849,-5.5944,-5.6171,-5.6186,-5.62,-5.6311,-5.6341,-5.6367,0,0,0,0,0,0,-5.542,-5.5464,-5.5433,-5.5599,-5.5649,-5.5689,-5.5776,-5.5739,-5.5808,-5.5795,-5.5771,-5.5784,-5.5928,-5.595,-5.5865,-5.6118,-5.6024,-5.6044,-5.6099,-5.6128,-5.6151,-5.6142,-5.5765,0,0,0,0,0,-5.5463,-5.5554,-5.5587,-5.5729,-5.5756,-5.5762,-5.5811,-5.5795,-5.5845,-5.5866,-5.589,-5.594,-5.6021,-5.6076,-5.6153,-5.6324,-5.6332,-5.6402,-5.6425,-5.6444,-5.6462,-5.6551,-5.6582,-5.6254,-5.6254,-5.6253,0,0,-5.5553,-5.5588,-5.5647,-5.5751,-5.5788,-5.5881,-5.578,-5.5883,-5.5951,-5.5881,-5.6012,-5.6032,-5.6085,-5.624,-5.6309,-5.6263,-5.6554,-5.6462,-5.6477,-5.6485,-5.6569,-5.66,-5.6628,-5.6263,-5.6262,-5.626,0,0,-5.5763,-5.58,-5.5922,-5.5961,-5.6018,-5.6021,-5.605,-5.6096,-5.6107,-5.6238,-5.6187,-5.6266,-5.6409,-5.6448,-5.6487,-5.6711,-5.6667,-5.6737,-5.6858,-5.6945,-5.6971,-5.6994,-5.7072,-5.71,-5.6754,-5.6754,-5.6755,0,-5.5867,-5.6007,-5.5989,-5.6095,-5.6142,-5.6083,-5.6205,-5.6243,-5.6322,-5.6355,-5.6302,-5.6478,-5.651,-5.6672,-5.6726,-5.676,-5.6791,-5.673,-5.6969,-5.6992,-5.7013,-5.7087,-5.7117,-5.6762,-5.6761,-5.6761,-5.676,0,-5.6131,-5.6228,-5.6319,-5.6398,-5.6454,-5.6568,-5.6565,-5.6625,-5.6603,-5.6611,-5.6744,-5.678,-5.6862,-5.69,-5.688,-5.7059,-5.7028,-5.6973,-5.6877,-5.7052,-5.7121,-5.715,-5.6774,-5.6771,-5.6769,-5.6767,0,0,-5.6413,-5.6479,-5.6513,-5.6547,-5.6605,-5.6679,-5.6789,-5.687,-5.6921,-5.6977,-5.7067,-5.7188,-5.7137,-5.7181,-5.7164,-5.7241,-5.7414,-5.7176,-5.7177,-5.7218,-5.7611,-5.7651,-5.7685,-5.7385,-5.7391,-5.7395,-5.7606,0,-5.6625,-5.6818,-5.6804,-5.6985,-5.7073,-5.7018,-5.7113,-5.7158,-5.7168,-5.7242,-5.7252,-5.7338,-5.7265,-5.729,-5.7364,-5.7377,-5.7492,-5.7362,-5.7467,-5.7471,-5.7455,-5.7721,-5.7765,-5.7962,-5.7633,-5.7637,-5.7641,0,-5.6899,-5.6965,-5.7155,-5.7198,-5.7235,-5.7321,-5.7393,-5.7466,-5.7515,-5.7516,-5.7565,-5.7535,-5.7643,-5.7546,-5.7693,-5.7605,-5.7647,-5.766,-5.7667,-5.7675,-5.7566,-5.7736,-5.8025,-5.8054,-5.7684,-5.768,-5.7677,0,-5.7084,-5.722,-5.7351,-5.7382,-5.7436,-5.7498,-5.7523,-5.7566,-5.7615,-5.7677,-5.7708,-5.7783,-5.7823,-5.788,-5.787,-5.78,-5.802,-5.7922,-5.8023,-5.8023,-5.8071,-5.8068,-5.837,-5.81,-5.81,-5.8099,-5.8099,0,-5.7322,-5.744,-5.7435,-5.7515,-5.7645,-5.7626,-5.7755,-5.7772,-5.7811,-5.7892,-5.7849,-5.7925,-5.7908,-5.7984,-5.7976,-5.8099,-5.8118,-5.812,-5.8117,-5.8124,-5.8123,-5.815,-5.8136,-5.8107,-5.8105,-5.8104,-5.8102,0,-5.755,-5.7552,-5.7691,-5.773,-5.7743,-5.7836,-5.7869,-5.7944,-5.7949,-5.8053,-5.8076,-5.8084,-5.8171,-5.8167,-5.8265,-5.826,-5.841,-5.8391,-5.8394,-5.839,-5.849,-5.848,-5.8819,-5.8862,-5.8565,-5.8568,-5.8571,0,-5.7702,-5.7791,-5.784,-5.7892,-5.7921,-5.8005,-5.8055,-5.804,-5.8093,-5.8154,-5.8221,-5.8304,-5.837,-5.8511,-5.8524,-5.8598,-5.858,-5.8694,-5.8591,-5.8594,-5.858,-5.8574,-5.8582,-5.8714,-5.8717,-5.872,-5.8722,0,-5.7969,-5.7965,-5.804,-5.8114,-5.8175,-5.8233,-5.8285,-5.833,-5.8319,-5.8381,-5.847,-5.8521,-5.862,-5.8703,-5.8773,-5.8796,-5.8758,-5.8754,-5.8781,-5.8789,-5.8786,-5.8788,-5.8448,-5.8746,-5.8744,-5.8742,-5.8741,-5.874,-5.8163,-5.8239,-5.8285,-5.8369,-5.8407,-5.8456,-5.8528,-5.8543,-5.8617,-5.8698,-5.8683,-5.8782,-5.8826,-5.8917,-5.8948,-5.9023,-5.8982,-5.9022,-5.9032,-5.9041,-5.9052,-5.8775,-5.9036,-5.9035,-5.9035,-5.9034,-5.9034,0,-5.8427,-5.8454,-5.8531,-5.8606,-5.8671,-5.8629,-5.8685,-5.8742,-5.883,-5.8875,-5.894,-5.9041,-5.912,-5.9139,-5.9215,-5.9271,-5.9255,-5.9292,-5.9287,-5.9292,-5.9085,-5.9054,-5.9303,-5.9303,-5.9303,-5.9303,-5.9303,-5.9303,-5.8572,-5.8698,-5.87,-5.8843,-5.8868,-5.8966,-5.9001,-5.9046,-5.9081,-5.9196,-5.9262,-5.9275,-5.9309,-5.9386,-5.9456,-5.9459,-5.9489,-5.9532,-5.9528,-5.9334,-5.9307,-5.9281,-5.9252,-5.9539,-5.9539,-5.9729,-5.9731,-5.9732]}]]